Temp
-6 -6 -7 -7 -6 -6 -6 -7 -7 -7 -6 -6 -6 -6 -6 -6 -6 -6 -6 -7 -6 -6 -6 -6 -6 -6 -6 -7 -6 -6 -6 -6 -6 -6 -6 -6 -6 -6 -6 -6 -7 -7 -7 -7 -7 -8 -8 -7 -7
-7 -7 -7 -6 -6 -6 -7 -7 -7 -7 -7 -6 -5 -6 -6 -7 -7 -6 -6 -6 -6 -7 -7 -7 -7 -7 -7 -7 -6 -6 -6 -6 -6 -6 -6 -6 -6 -6 -6 -6 -7 -7 -7 -7 -7 -7 -7 -7 -7
-7 -7 -7 -6 -7 -7 -8 -7 -7 -7 -7 -6 -6 -6 -6 -6 -6 -6 -6 -6 -7 -7 -7 -7 -7 -7 -7 -6 -6 -6 -6 -6 -6 -6 -6 -6 -6 -6 -6 -6 -6 -7 -7 -7 -7 -7 -7 -7 -7
-7 -8 -7 -6 -6 -7 -7 -7 -7 -7 -7 -6 -7 -7 -6 -6 -6 -6 -6 -7 -7 -7 -7 -7 -7 -7 -7 -7 -7 -7 -7 -6 -6 -6 -6 -6 -6 -6 -6 -6 -6 -6 -6 -6 -6 -6 -6 -7 -7
-7 -7 -7 -7 -7 -7 -7 -7 -6 -6 -6 -6 -7 -7 -7 -7 -7 -7 -7 -7 -7 -7 -7 -7 -7 -7 -7 -7 -7 -7 -6 -6 -6 -6 -6 -6 -6 -6 -6 -7 -7 -7 -7 -7 -7 -7 -7 -7 -7
-8 -7 -7 -6 -7 -6 -6 -7 -6 -6 -6 -6 -6 -7 -7 -7 -7 -7 -7 -7 -7 -7 -7 -7 -7 -7 -7 -7 -7 -7 -7 -7 -7 -7 -7 -7 -7 -7 -7 -8 -7 -7 -7 -7 -7 -7 -7 -7 -7
-8 -7 -6 -6 -6 -6 -6 -6 -6 -7 -7 -7 -7 -7 -7 -7 -7 -7 -7 -7 -7 -7 -7 -7 -7 -7 -7 -7 -7 -7 -7 -7 -7 -7 -8 -8 -8 -8 -8 -8 -8 -8 -8 -8 -8 -8 -8 -8 -8
-7 -7 -7 -6 -7 -7 -7 -6 -7 -7 -7 -7 -7 -7 -7 -7 -8 -8 -8 -8 -8 -8 -7 -7 -7 -8 -8 -8 -8 -8 -8 -8 -8 -8 -8 -8 -8 -8 -8 -8 -8 -9 -9 -9 -9 -9 -9 -9 -9
-7 -7 -8 -8 -7 -6 -6 -7 -7 -7 -7 -8 -9 -9 -8 -8 -8 -8 -8 -9 -9 -8 -8 -8 -8 -8 -8 -8 -8 -8 -8 -8 -8 -8 -8 -9 -8 -8 -9 -9 -9 -9 -10 -10 -10 -10 -10 -10 -10
-8 -7 -7 -8 -8 -7 -7 -7 -6 -8 -9 -10 -9 -9 -9 -9 -8 -8 -8 -8 -9 -9 -8 -8 -8 -8 -8 -8 -8 -8 -8 -8 -8 -8 -9 -9 -9 -9 -9 -9 -9 -9 -9 -9 -9 -10 -10 -10 -10
-8 -8 -8 -8 -8 -8 -7 -7 -8 -8 -9 -9 -9 -9 -9 -8 -8 -9 -8 -8 -7 -9 -10 -9 -9 -9 -9 -9 -9 -8 -8 -8 -9 -9 -9 -9 -9 -9 -10 -10 -10 -10 -10 -11 -11 -11 -11 -11 -10
-9 -8 -9 -9 -9 -9 -9 -8 -8 -9 -8 -8 -9 -9 -9 -9 -10 -9 -9 -9 -10 -8 -9 -9 -9 -9 -9 -9 -9 -10 -9 -9 -9 -9 -9 -10 -11 -11 -11 -11 -11 -11 -11 -11 -11 -11 -11 -11 -11
-8 -8 -9 -9 -9 -9 -9 -9 -9 -9 -9 -8 -9 -9 -9 -10 -9 -9 -8 -9 -8 -10 -8 -9 -10 -9 -10 -9 -10 -9 -9 -9 -10 -10 -10 -10 -10 -10 -10 -11 -11 -11 -11 -11 -11 -11 -11 -11 -11
-9 -8 -9 -9 -10 -8 -9 -9 -9 -9 -10 -10 -9 -10 -10 -9 -9 -10 -9 -9 -8 -9 -10 -9 -10 -10 -10 -9 -9 -9 -9 -9 -9 -10 -10 -10 -10 -10 -11 -11 -12 -12 -12 -12 -12 -12 -12 -12 -12
-10 -9 -9 -9 -10 -9 -10 -10 -10 -10 -11 -10 -9 -10 -9 -10 -9 -9 -9 -8 -8 -9 -9 -9 -9 -9 -9 -10 -9 -10 -10 -9 -9 -9 -10 -10 -11 -11 -11 -12 -12 -12 -12 -12 -12 -12 -12 -12 -12
-10 -10 -10 -10 -10 -10 -10 -10 -10 -10 -10 -11 -10 -9 -9 -9 -9 -9 -9 -9 -9 -9 -8 -9 -9 -9 -10 -10 -10 -9 -9 -9 -9 -9 -10 -10 -12 -12 -13 -13 -13 -13 -13 -13 -12 -12 -12 -11 -11
-10 -10 -10 -10 -10 -10 -9 -9 -9 -10 -11 -11 -10 -10 -9 -10 -10 -9 -10 -9 -8 -8 -8 -9 -9 -9 -10 -10 -9 -9 -8 -9 -9 -10 -11 -11 -11 -12 -12 -12 -14 -14 -15 -14 -14 -13 -13 -13 -12
-10 -10 -10 -10 -10 -10 -9 -9 -9 -9 -10 -10 -10 -10 -10 -10 -10 -10 -9 -9 -8 -8 -8 -9 -9 -9 -10 -9 -9 -10 -10 -10 -11 -11 -11 -13 -13 -12 -12 -13 -14 -14 -14 -15 -14 -14 -14 -13 -14
-10 -10 -10 -11 -10 -9 -10 -10 -10 -10 -11 -11 -11 -11 -10 -10 -10 -9 -9 -9 -8 -9 -8 -8 -10 -9 -9 -10 -10 -11 -11 -12 -12 -11 -12 -13 -13 -13 -13 -13 -13 -14 -15 -14 -14 -15 -15 -15 -15
-10 -10 -10 -10 -11 -10 -9 -10 -10 -11 -11 -11 -11 -10 -10 -10 -10 -9 -9 -9 -9 -9 -9 -10 -10 -10 -10 -10 -10 -11 -12 -11 -11 -11 -12 -13 -13 -13 -14 -14 -14 -14 -14 -15 -15 -15 -14 -15 -15
-11 -11 -11 -11 -11 -10 -11 -10 -10 -11 -11 -11 -10 -10 -10 -10 -10 -10 -10 -9 -9 -10 -10 -10 -10 -10 -10 -10 -11 -11 -12 -11 -12 -12 -13 -13 -14 -14 -14 -15 -15 -15 -16 -17 -17 -17 -16 -15 -16
-11 -11 -11 -11 -11 -11 -10 -10 -10 -10 -10 -10 -10 -10 -10 -10 -10 -9 -10 -10 -10 -10 -10 -10 -10 -10 -11 -11 -11 -11 -11 -12 -12 -13 -13 -13 -14 -14 -14 -15 -16 -16 -17 -17 -18 -18 -17 -16 -17
-11 -11 -11 -11 -11 -11 -10 -10 -10 -10 -10 -10 -10 -10 -10 -11 -10 -10 -9 -9 -9 -10 -10 -10 -10 -10 -10 -10 -11 -11 -12 -12 -12 -12 -13 -13 -14 -14 -15 -15 -16 -17 -17 -18 -19 -20 -19 -18 -18
-11 -11 -11 -11 -11 -10 -10 -10 -10 -10 -10 -10 -10 -11 -10 -10 -10 -9 -9 -10 -10 -10 -10 -10 -10 -10 -10 -10 -10 -11 -12 -11 -12 -13 -13 -14 -15 -15 -16 -16 -17 -17 -18 -19 -20 -20 -20 -20 -18
-11 -11 -11 -10 -11 -10 -11 -10 -10 -10 -9 -10 -10 -10 -11 -11 -10 -9 -10 -10 -11 -11 -10 -10 -10 -10 -10 -11 -11 -11 -11 -12 -12 -13 -14 -15 -15 -16 -17 -18 -18 -19 -20 -21 -21 -21 -21 -21 -20
-11 -11 -12 -11 -11 -11 -10 -10 -10 -10 -9 -10 -11 -10 -10 -11 -11 -9 -10 -10 -10 -11 -10 -10 -10 -10 -10 -10 -11 -11 -12 -12 -13 -13 -13 -14 -15 -16 -17 -18 -19 -20 -21 -22 -22 -23 -23 -22 -21
-11 -11 -11 -11 -11 -10 -10 -10 -10 -10 -10 -11 -11 -11 -10 -10 -10 -10 -10 -11 -10 -11 -10 -10 -10 -10 -10 -10 -11 -11 -12 -12 -12 -12 -13 -14 -15 -16 -17 -19 -20 -22 -22 -23 -23 -24 -24 -23 -22
-11 -11 -11 -11 -11 -10 -10 -10 -9 -10 -10 -10 -11 -10 -10 -10 -10 -11 -11 -11 -11 -11 -11 -11 -10 -10 -11 -11 -11 -11 -11 -12 -12 -13 -13 -14 -15 -16 -18 -20 -21 -23 -24 -24 -24 -24 -24 -24 -22
-11 -11 -11 -11 -11 -11 -10 -9 -11 -10 -10 -11 -11 -11 -10 -11 -10 -11 -11 -11 -11 -11 -11 -11 -11 -11 -11 -11 -11 -11 -12 -12 -12 -13 -14 -15 -15 -16 -17 -19 -21 -23 -24 -24 -25 -25 -25 -25 -22
-11 -11 -10 -11 -11 -10 -10 -9 -10 -10 -11 -11 -11 -11 -10 -11 -11 -11 -11 -11 -11 -11 -11 -11 -11 -11 -11 -11 -11 -11 -12 -12 -13 -13 -15 -15 -15 -16 -16 -18 -20 -22 -24 -25 -25 -25 -25 -24 -21
Height
5894 5896 5897 5898 5902 5901 5901 5902 5902 5902 5901 5901 5901 5901 5901 5901 5902 5905 5904 5903 5903 5902 5902 5901 5901 5901 5901 5899 5898 5898 5897 5897 5897 5896 5895 5895 5894 5893 5892 5892 5891 5890 5891 5890 5890 5889 5888 5887 5886
5895 5898 5898 5898 5899 5898 5899 5899 5902 5902 5901 5899 5899 5900 5901 5901 5901 5901 5902 5901 5901 5901 5900 5900 5900 5899 5898 5897 5896 5896 5895 5895 5894 5893 5892 5891 5890 5889 5888 5887 5888 5888 5887 5886 5885 5884 5884 5884 5883
5897 5898 5900 5898 5896 5897 5899 5899 5902 5903 5900 5900 5900 5899 5900 5900 5900 5899 5898 5899 5899 5899 5898 5898 5897 5896 5895 5894 5894 5893 5892 5891 5891 5890 5889 5888 5885 5884 5884 5883 5882 5882 5881 5881 5881 5880 5879 5878 5878
5896 5898 5901 5900 5899 5898 5899 5900 5903 5904 5903 5900 5899 5899 5900 5899 5899 5899 5898 5898 5897 5896 5896 5895 5893 5893 5892 5891 5890 5889 5887 5887 5886 5885 5884 5883 5882 5881 5880 5879 5878 5877 5877 5876 5875 5875 5874 5874 5873
5895 5897 5900 5901 5900 5900 5901 5901 5900 5902 5902 5901 5899 5899 5900 5899 5898 5897 5896 5895 5894 5893 5893 5891 5890 5888 5887 5886 5886 5884 5883 5882 5882 5881 5880 5879 5878 5877 5876 5875 5874 5873 5872 5871 5870 5870 5869 5868 5867
5895 5897 5900 5901 5902 5901 5901 5900 5900 5901 5899 5899 5899 5899 5900 5898 5896 5895 5893 5893 5892 5891 5889 5888 5886 5885 5884 5883 5882 5881 5880 5879 5878 5876 5875 5873 5872 5872 5871 5870 5869 5867 5866 5865 5864 5863 5862 5861 5860
5898 5898 5900 5898 5899 5898 5898 5899 5898 5898 5897 5900 5900 5899 5899 5897 5896 5894 5891 5890 5889 5888 5886 5884 5883 5881 5880 5879 5877 5876 5875 5874 5873 5872 5870 5869 5867 5867 5865 5864 5863 5861 5859 5858 5856 5855 5853 5852 5851
5899 5900 5900 5901 5900 5898 5897 5897 5897 5898 5899 5900 5899 5898 5898 5895 5893 5891 5889 5887 5886 5884 5882 5880 5878 5877 5875 5873 5872 5870 5869 5868 5867 5865 5864 5862 5861 5860 5859 5857 5856 5854 5852 5850 5849 5847 5846 5845 5843
5899 5901 5903 5902 5900 5899 5896 5898 5900 5899 5898 5896 5897 5896 5895 5892 5891 5889 5886 5884 5882 5880 5877 5876 5875 5873 5871 5869 5868 5867 5866 5865 5862 5859 5857 5856 5855 5854 5852 5851 5849 5846 5844 5843 5841 5840 5837 5836 5835
5899 5900 5898 5899 5899 5897 5895 5897 5898 5899 5898 5897 5895 5894 5892 5890 5888 5888 5886 5881 5880 5877 5876 5873 5871 5870 5868 5866 5865 5862 5861 5859 5857 5855 5852 5850 5849 5847 5845 5843 5840 5837 5834 5833 5831 5829 5827 5825 5823
5897 5897 5898 5898 5898 5897 5896 5896 5895 5895 5896 5894 5893 5891 5890 5890 5890 5890 5890 5886 5880 5873 5870 5869 5867 5865 5863 5862 5860 5858 5856 5855 5853 5849 5846 5845 5842 5839 5836 5832 5828 5824 5822 5820 5819 5817 5818 5816 5815
5896 5897 5898 5897 5896 5894 5894 5894 5893 5892 5892 5894 5892 5891 5889 5887 5885 5883 5884 5881 5877 5869 5862 5862 5862 5860 5859 5857 5857 5854 5851 5850 5847 5844 5840 5837 5835 5832 5829 5824 5821 5818 5816 5814 5811 5808 5807 5804 5803
5895 5896 5896 5895 5895 5893 5892 5892 5888 5890 5891 5891 5890 5890 5887 5883 5883 5880 5877 5869 5861 5860 5857 5854 5856 5855 5853 5851 5850 5849 5847 5845 5841 5838 5835 5832 5828 5823 5819 5815 5812 5808 5806 5803 5801 5799 5797 5794 5790
5896 5896 5896 5894 5894 5893 5891 5888 5889 5890 5889 5888 5888 5886 5883 5883 5878 5874 5869 5858 5847 5850 5850 5846 5848 5847 5847 5847 5845 5843 5842 5841 5837 5833 5829 5825 5820 5814 5808 5804 5801 5798 5796 5795 5792 5789 5786 5784 5784
5895 5897 5895 5893 5892 5890 5888 5887 5888 5888 5887 5886 5885 5880 5880 5879 5874 5868 5863 5858 5852 5850 5846 5842 5842 5840 5840 5841 5841 5838 5836 5832 5831 5825 5820 5817 5812 5804 5797 5793 5789 5786 5784 5781 5778 5776 5774 5772 5771
5894 5894 5893 5893 5890 5889 5888 5886 5885 5885 5884 5882 5879 5876 5874 5871 5869 5865 5862 5855 5849 5845 5841 5841 5839 5838 5837 5838 5836 5832 5829 5823 5819 5816 5813 5807 5801 5795 5788 5782 5779 5779 5776 5773 5769 5765 5762 5759 5756
5891 5892 5891 5891 5887 5887 5886 5884 5882 5881 5881 5879 5873 5872 5869 5864 5865 5862 5858 5853 5850 5845 5841 5839 5835 5833 5832 5831 5828 5825 5817 5812 5810 5807 5803 5798 5793 5790 5783 5777 5772 5767 5764 5760 5757 5755 5750 5746 5742
5889 5888 5887 5886 5886 5884 5883 5882 5880 5878 5877 5872 5871 5870 5867 5863 5861 5859 5855 5854 5848 5842 5838 5834 5831 5830 5828 5824 5820 5815 5809 5809 5806 5800 5793 5788 5784 5780 5776 5770 5764 5756 5749 5746 5742 5738 5735 5732 5730
5886 5886 5885 5883 5881 5879 5879 5878 5877 5876 5874 5872 5870 5866 5864 5859 5855 5854 5852 5852 5848 5841 5834 5830 5829 5827 5823 5818 5815 5808 5808 5804 5797 5790 5782 5779 5774 5769 5765 5762 5755 5743 5738 5734 5728 5725 5720 5719 5715
5882 5880 5880 5879 5876 5876 5875 5874 5873 5872 5869 5867 5866 5865 5861 5857 5852 5849 5848 5846 5842 5837 5832 5827 5824 5818 5814 5810 5806 5804 5800 5796 5789 5781 5775 5770 5764 5759 5756 5750 5743 5734 5727 5722 5717 5715 5710 5706 5704
5879 5877 5876 5876 5873 5872 5870 5869 5868 5866 5863 5862 5860 5859 5855 5851 5848 5845 5843 5841 5837 5832 5826 5823 5819 5814 5809 5806 5803 5800 5794 5789 5782 5775 5768 5761 5754 5749 5743 5737 5729 5721 5714 5708 5704 5699 5695 5693 5691
5876 5875 5873 5872 5870 5868 5867 5864 5864 5863 5858 5856 5856 5854 5851 5847 5843 5840 5839 5836 5832 5828 5824 5819 5813 5809 5804 5799 5795 5791 5786 5780 5774 5765 5759 5752 5747 5741 5732 5724 5716 5707 5699 5693 5689 5685 5683 5682 5680
5872 5871 5870 5870 5867 5865 5865 5862 5861 5859 5854 5852 5851 5849 5846 5843 5838 5835 5833 5830 5826 5821 5816 5812 5807 5802 5798 5793 5789 5786 5780 5772 5765 5758 5751 5743 5735 5728 5720 5709 5700 5691 5682 5674 5669 5667 5666 5666 5667
5869 5868 5866 5865 5863 5860 5859 5858 5855 5854 5850 5850 5848 5845 5842 5838 5834 5831 5828 5824 5819 5815 5811 5806 5803 5799 5794 5790 5786 5780 5773 5767 5759 5750 5742 5734 5725 5715 5705 5696 5685 5675 5663 5653 5646 5642 5643 5645 5648
5865 5863 5860 5858 5856 5854 5853 5849 5850 5846 5844 5845 5843 5840 5839 5834 5832 5828 5824 5820 5816 5814 5809 5804 5799 5795 5790 5785 5779 5774 5768 5760 5753 5744 5734 5726 5715 5704 5691 5677 5664 5651 5640 5631 5623 5618 5616 5621 5628
5860 5858 5857 5850 5848 5848 5847 5843 5845 5839 5840 5840 5837 5835 5833 5830 5829 5825 5821 5818 5815 5811 5804 5800 5796 5791 5786 5782 5776 5769 5761 5754 5745 5738 5727 5717 5707 5694 5680 5665 5649 5633 5620 5608 5599 5592 5591 5596 5607
5853 5851 5849 5845 5841 5839 5840 5839 5837 5833 5833 5833 5835 5833 5828 5826 5825 5820 5817 5814 5810 5805 5801 5797 5792 5788 5783 5775 5768 5762 5756 5749 5739 5729 5721 5709 5697 5682 5666 5651 5634 5615 5598 5584 5573 5568 5569 5575 5587
5846 5844 5841 5839 5833 5831 5831 5832 5831 5829 5829 5823 5829 5827 5825 5823 5820 5817 5814 5810 5806 5802 5798 5793 5788 5783 5777 5772 5767 5760 5751 5742 5733 5724 5714 5701 5691 5678 5659 5638 5615 5596 5574 5561 5556 5553 5554 5561 5573
5839 5836 5834 5830 5828 5825 5825 5829 5824 5822 5824 5824 5822 5821 5820 5818 5815 5813 5811 5807 5803 5799 5796 5791 5786 5781 5776 5769 5762 5754 5746 5738 5729 5719 5708 5701 5689 5673 5651 5628 5606 5585 5563 5553 5546 5543 5545 5552 5565
5831 5829 5827 5824 5823 5821 5820 5823 5820 5820 5819 5818 5817 5817 5816 5814 5810 5809 5806 5803 5800 5796 5793 5788 5783 5778 5772 5765 5758 5749 5742 5733 5724 5715 5708 5700 5687 5667 5648 5628 5607 5586 5565 5552 5544 5543 5543 5550 5568
Wind_Speed
8 8 6 5 4 5 5 6 4 2 4 2 1 3 5 4 3 4 6 8 8 8 9 7 8 9 10 10 11 13 13 15 17 17 17 19 19 20 20 21 21 22 24 24 25 26 26 27 29
6 5 5 4 4 4 4 9 5 4 3 6 4 4 4 3 5 6 6 8 9 9 10 10 10 10 10 11 12 13 15 16 17 18 18 20 21 22 22 23 24 25 26 27 28 28 29 30 31
7 9 8 7 13 16 9 9 5 3 4 5 6 7 6 6 6 7 7 7 7 8 8 9 10 12 13 13 14 15 17 18 20 22 23 24 22 21 20 20 21 24 25 26 28 30 30 31 31
8 10 11 9 13 13 8 5 5 3 3 1 4 5 6 7 8 9 10 11 11 11 11 12 13 14 15 17 19 20 20 22 23 24 22 20 19 20 20 21 21 22 24 24 25 27 28 28 29
18 18 12 13 13 12 10 9 6 4 4 1 1 4 6 10 9 9 10 10 12 13 13 14 15 16 18 19 20 21 21 21 21 20 20 21 23 23 23 24 25 25 26 27 28 30 31 32 33
17 19 13 16 14 12 13 14 11 8 8 9 7 6 7 8 8 9 10 9 10 12 14 16 16 17 18 19 20 21 22 22 22 22 23 24 25 26 25 26 27 28 29 30 31 32 33 34 35
10 13 11 9 8 8 9 8 9 9 12 8 7 6 6 7 8 9 11 11 11 13 15 16 16 18 19 21 22 23 24 24 24 24 25 26 27 27 28 29 29 31 32 32 33 33 34 34 35
4 4 8 5 4 6 8 10 12 12 12 9 12 13 9 7 8 11 14 16 17 18 18 19 18 19 20 21 22 22 24 24 25 25 26 29 31 31 32 32 33 34 34 34 34 34 34 35 36
2 3 0 3 3 2 7 12 10 12 13 15 13 14 15 16 14 11 12 15 19 21 21 21 21 20 21 23 23 24 26 28 29 30 31 33 34 35 36 37 38 38 37 38 38 39 38 38 39
5 5 12 8 3 5 5 6 10 12 10 8 8 10 13 15 16 16 14 14 16 22 23 24 26 26 28 28 28 30 31 33 34 34 34 34 35 38 41 43 44 44 44 43 42 38 37 37 37
13 8 4 3 6 9 11 11 12 11 8 7 6 14 14 20 31 27 24 27 28 18 20 21 24 26 27 29 30 32 32 35 36 36 39 40 40 40 41 42 44 45 43 40 41 40 39 39 40
10 5 2 4 6 10 13 10 12 9 9 7 8 13 21 24 30 35 32 39 37 35 20 18 23 27 29 29 28 29 31 34 36 36 38 38 38 40 40 41 43 45 45 41 42 43 43 42 43
14 5 4 2 4 3 8 8 9 14 17 18 18 20 26 24 29 29 40 45 51 34 27 21 22 27 28 28 28 28 30 32 32 35 36 37 41 44 44 43 44 42 43 42 39 39 41 41 43
15 13 6 3 1 3 1 3 8 14 15 18 20 21 26 26 31 37 44 45 30 25 23 21 19 24 25 28 29 30 31 32 33 35 37 39 42 43 48 49 49 45 40 37 37 38 40 42 44
9 5 8 7 6 1 5 9 10 11 11 14 16 20 26 27 34 36 37 37 35 33 28 16 15 18 18 28 29 26 22 27 25 28 30 37 41 41 45 46 47 40 39 40 42 45 45 45 44
8 9 9 9 5 5 8 11 8 8 16 22 23 28 31 35 34 36 33 33 41 26 20 12 22 24 25 23 25 30 29 32 32 34 40 40 37 35 37 40 30 28 33 35 43 45 48 52 53
11 11 9 11 10 7 10 14 13 12 16 20 26 30 32 38 34 31 34 35 36 33 21 24 30 21 18 33 26 28 31 34 37 41 47 45 43 37 34 31 29 43 43 43 48 51 51 56 58
13 15 13 15 14 15 16 16 17 17 18 26 29 34 35 39 38 33 31 36 23 24 17 17 18 22 25 28 30 27 29 32 37 44 42 40 40 37 44 54 58 43 56 53 53 55 56 56 57
21 21 21 22 23 24 17 17 17 19 23 26 30 32 35 37 38 34 31 24 30 20 22 17 11 17 21 25 27 23 26 30 38 38 38 36 45 47 48 55 62 55 59 47 41 45 47 53 52
21 24 25 25 29 22 22 23 25 24 24 29 31 34 34 36 31 30 30 25 23 14 18 20 22 26 29 30 25 24 26 31 36 37 36 37 40 42 51 54 61 69 55 52 49 50 49 47 39
20 6 6 10 21 23 22 24 25 26 31 33 33 34 31 20 24 24 23 24 20 20 21 22 24 27 29 33 22 26 29 32 32 33 32 34 37 41 44 48 51 54 56 53 53 49 47 43 42
14 18 14 13 16 22 27 29 30 29 33 34 29 29 21 24 28 24 22 20 19 20 22 25 30 31 33 25 29 29 33 34 35 39 39 41 40 43 48 52 54 57 55 56 52 51 47 46 49
15 18 16 17 18 22 24 29 32 31 33 33 34 30 30 18 23 22 22 20 21 24 26 29 31 33 33 32 30 31 34 37 40 42 44 47 50 51 53 58 58 59 60 61 58 51 48 51 47
22 24 23 23 24 23 25 34 32 30 34 32 27 25 18 17 21 22 21 22 24 27 28 30 32 32 32 31 30 32 35 38 41 43 47 49 50 54 59 62 62 61 60 59 60 62 56 53 46
26 29 32 31 31 32 35 37 32 29 30 30 31 21 14 16 20 21 19 21 23 26 26 30 33 33 31 31 32 33 35 38 41 46 48 46 51 56 64 65 65 60 57 56 56 58 59 56 47
33 34 35 41 41 40 40 34 29 25 22 23 25 7 15 23 23 20 18 21 23 25 28 31 32 32 31 30 31 33 36 39 43 47 49 53 56 63 72 70 63 61 59 56 57 58 54 52 52
29 28 31 34 35 37 34 26 25 20 27 32 28 18 17 17 21 18 19 22 25 27 27 30 32 31 31 33 35 35 36 39 44 50 50 56 62 70 73 63 58 58 58 59 54 48 42 42 48
29 29 26 28 34 33 28 26 24 22 23 17 20 20 13 15 16 15 17 21 23 24 27 29 30 31 33 33 31 34 37 40 45 48 52 58 64 67 68 64 63 62 52 42 36 35 32 32 40
32 30 28 29 26 27 24 15 19 19 16 13 15 16 16 17 15 16 17 19 22 22 24 26 26 28 29 29 32 35 37 40 44 48 52 55 62 65 65 68 67 67 42 30 31 22 20 24 34
28 28 27 18 16 23 21 11 15 13 12 17 18 17 17 17 15 17 18 20 21 22 22 23 23 24 27 30 33 36 38 40 44 46 48 52 58 62 63 64 65 61 48 29 22 15 6 14 28
Wind_Direction
166 180 181 205 223 246 270 264 232 315 271 253 122 69 55 26 341 332 330 315 314 314 316 316 306 302 296 292 292 289 287 286 289 293 295 293 291 289 286 282 277 273 271 272 269 266 265 264 265
123 136 137 158 183 264 294 266 277 1 330 307 333 15 39 12 326 328 316 309 310 310 309 308 305 303 300 298 294 291 291 290 287 284 282 280 281 282 281 280 280 279 277 275 273 273 272 270 269
120 141 139 84 92 108 82 81 110 298 301 296 345 357 2 347 341 338 318 311 299 298 300 301 300 305 302 300 295 289 287 285 284 282 279 277 276 275 274 274 273 273 274 275 275 273 272 273 272
135 157 137 109 115 109 110 97 111 169 242 328 10 358 2 344 336 328 315 306 303 307 302 299 301 298 296 294 293 290 288 285 284 283 280 275 271 270 270 271 271 270 271 273 273 272 272 272 272
144 136 119 132 121 115 115 128 129 138 173 190 268 334 331 315 318 312 307 304 301 299 297 295 294 295 295 293 290 289 287 282 280 277 273 272 273 274 275 271 269 268 267 268 267 267 267 268 269
180 142 150 127 98 112 100 98 93 88 75 44 31 16 359 341 338 324 310 316 309 304 295 293 293 294 293 291 289 289 287 284 280 279 278 276 275 276 277 276 275 273 272 271 270 269 269 269 269
129 163 163 118 89 55 49 60 72 48 47 33 19 24 10 351 350 335 319 314 307 297 292 292 292 291 288 287 289 289 287 285 285 284 283 283 282 281 280 279 277 276 275 273 271 270 269 268 267
125 165 204 163 94 49 40 34 40 23 9 23 16 2 347 343 351 344 329 323 317 306 299 297 296 293 291 289 286 284 282 282 282 283 285 284 283 283 283 281 279 276 273 270 270 271 271 270 269
5 346 281 304 303 353 51 47 43 20 2 351 357 346 346 343 333 331 332 330 325 311 307 305 303 298 293 291 292 290 290 289 286 284 283 282 282 283 283 281 280 278 276 275 274 273 271 270 269
345 262 331 285 257 17 8 45 43 45 27 351 316 338 324 323 314 305 297 298 310 315 311 311 310 307 303 299 295 291 289 285 282 282 282 284 286 286 284 282 280 278 277 279 278 275 274 272 267
275 295 360 50 357 353 354 6 12 20 10 355 274 328 319 333 334 322 319 314 297 286 295 298 299 296 293 292 291 291 289 288 288 289 290 290 288 287 288 287 285 283 282 280 278 277 276 274 272
256 287 39 48 358 358 352 352 1 334 301 310 284 335 334 334 342 337 317 330 294 271 262 276 287 289 291 290 292 294 295 296 293 291 291 292 290 289 286 283 282 281 280 278 278 280 275 272 271
254 221 169 171 292 324 333 355 322 329 341 352 353 359 353 338 336 338 333 328 319 256 263 262 275 282 279 293 296 297 303 299 298 299 301 299 297 291 287 284 279 274 274 273 269 269 271 268 269
249 248 219 251 96 335 3 305 343 333 341 344 345 341 326 334 337 335 337 341 330 273 241 249 257 265 276 288 291 302 306 307 312 302 301 302 297 288 282 283 284 278 274 272 273 275 274 272 269
215 212 252 267 289 243 217 295 319 337 338 334 339 330 329 339 337 338 341 334 335 318 308 265 275 289 292 300 299 302 333 333 323 311 301 299 299 292 286 279 276 275 281 282 282 281 279 281 278
209 211 248 260 237 251 271 277 304 325 327 346 331 324 336 339 347 340 340 332 333 324 299 316 314 293 294 303 342 329 304 319 315 312 306 297 306 290 273 269 274 275 297 300 292 296 288 285 284
223 231 246 255 259 265 262 266 285 314 331 328 326 325 336 337 343 338 340 334 323 318 324 298 301 281 286 337 332 329 328 332 323 316 310 304 302 290 276 278 279 304 313 297 292 283 271 270 269
239 256 274 260 240 264 275 298 303 307 318 314 322 326 331 324 321 324 312 335 315 336 354 7 360 303 310 324 326 330 330 315 311 313 309 308 304 300 280 294 300 292 304 310 295 290 280 269 276
256 263 271 256 246 251 274 290 304 306 309 313 310 314 317 311 313 315 320 328 321 329 332 352 342 326 329 330 324 320 303 303 306 313 312 308 291 289 292 296 294 288 305 301 297 295 288 279 283
270 259 284 238 244 260 284 291 293 297 300 297 300 306 306 310 308 303 312 323 330 334 341 342 340 340 339 332 322 294 291 302 308 307 303 300 298 290 289 290 289 293 295 294 289 289 287 285 278
272 298 310 304 256 261 274 279 292 294 292 294 302 315 311 304 315 316 314 317 326 336 340 344 339 337 334 328 307 301 299 313 316 317 319 312 308 305 299 295 294 294 295 293 292 285 283 279 270
232 320 307 291 284 273 278 288 288 295 291 292 307 313 311 309 301 310 310 311 327 335 336 339 343 337 334 329 328 326 324 321 321 325 322 319 312 308 306 303 302 300 301 299 296 284 279 272 267
288 283 283 293 280 284 292 295 298 296 299 305 317 317 297 309 308 305 308 318 327 337 341 342 340 340 338 332 332 327 324 326 327 329 327 324 320 315 315 313 310 306 301 295 288 278 269 262 267
285 298 288 286 284 276 291 303 300 293 293 299 303 317 297 296 307 303 316 323 332 337 339 338 337 338 336 330 329 330 329 329 332 332 329 325 325 323 322 316 308 303 297 292 289 281 267 258 257
292 294 291 296 300 300 302 298 313 296 302 300 300 301 284 292 297 310 321 323 327 331 332 338 341 340 333 334 332 328 331 334 335 335 331 328 328 326 329 323 314 306 299 297 292 284 275 259 247
285 288 292 295 294 296 297 288 300 287 288 291 321 293 290 277 294 305 316 315 321 330 337 339 339 338 334 331 328 332 336 336 339 336 335 333 330 329 329 325 320 308 301 296 293 282 271 259 243
294 291 290 294 289 288 293 290 291 291 290 285 284 282 302 285 297 313 316 316 325 333 333 336 340 335 334 336 338 338 338 338 340 342 338 339 336 333 333 330 324 315 306 301 291 285 271 253 236
299 292 287 289 282 283 281 284 292 284 300 304 269 281 293 300 293 308 313 318 324 325 331 340 339 338 338 336 337 340 341 343 345 343 342 344 337 336 338 340 340 331 321 307 299 285 272 249 227
285 286 280 287 280 284 278 309 297 272 268 289 294 292 286 297 303 305 310 316 321 321 330 333 339 341 340 344 347 347 347 346 348 345 347 341 339 343 348 350 351 347 341 322 316 297 265 245 209
296 278 286 273 281 280 283 323 296 282 295 294 294 289 283 301 304 298 307 312 317 318 326 330 340 347 351 354 353 352 351 350 351 349 344 343 342 352 358 357 357 356 358 353 349 338 306 188 182